Flag for U.S.A. Weather past 2 weeks in Fort Bragg, California, U.S.A.

Now
41 °F

Clear.


Feels Like: 41 °F
Forecast: 47 / 60 °F
Wind: No wind

Location: Ukiah Municipal

Current Time: Jan 31, 2015 at 2:13:54 AM

Latest Report: Jan 31, 2015 at 1:56 AM


Visibility: 10 mi

Pressure: 29.97 "Hg

Humidity: 89%

Dew point: 38 °F

Location of Fort BraggLocation

Historic Weather in Fort Bragg — Graph

°F

Fort Bragg temperature yesterday

Maximum temperature yesterday: 73 °F (at 2:56 PM)
Minimum temperature yesterday: 39 °F (at 5:56 AM)
Average temperature yesterday: 52 °F

Past Weeks' High & Low Weather Summary

 TemperatureHumidityPressure
High76 °F (Jan 24, 2:56 PM)97% (Jan 17, 7:56 AM)30.40 "Hg (Jan 17, 7:56 AM)
Low33 °F (Jan 21, 6:56 AM)34% (Jan 29, 2:56 PM)29.89 "Hg (Jan 30, 2:56 PM)
Average51 °F79%30.17 "Hg
* Reported Jan 16 12:56 AM — Jan 31 12:56 AM, Fort Bragg, Weather by CustomWeather, © 2014

Note: Actual official high and low records may vary slightly from our data, if they occured in-between our weather recording intervals... More about our weather records

Advertising

Fort Bragg weather history for previous 24 hours

 ConditionsComfort  
Time TempWeatherWind HumidityBarometerVisibility
12:56 AM
Jan 31
41 °FClear.No wind89%29.97 "Hg10 mi
11:56 PM
Jan 30
45 °FClear.No wind86%29.98 "Hg8 mi
10:56 PM45 °FClear.5 mph90%29.98 "Hg8 mi
9:56 PM47 °FClear.No wind86%29.98 "Hg10 mi
8:56 PM51 °FClear.3 mph77%29.96 "Hg10 mi
7:56 PM53 °FClear.No wind72%29.95 "Hg10 mi
6:56 PM55 °FClear.5 mph69%29.93 "Hg9 mi
5:56 PM59 °FClear.3 mph60%29.93 "Hg10 mi
4:56 PM67 °FSunny.5 mph45%29.92 "Hg10 mi
3:56 PM72 °FSunny.7 mph40%29.89 "Hg10 mi
2:56 PM73 °FSunny.No wind38%29.89 "Hg10 mi
1:56 PM69 °FSunny.No wind44%29.91 "Hg10 mi
12:56 PM66 °FSunny.No wind47%29.95 "Hg10 mi
11:56 AM62 °FSunny.No wind50%29.98 "Hg10 mi
10:56 AM57 °FSunny.3 mph58%30.02 "Hg10 mi
9:56 AM51 °FSunny.3 mph74%30.04 "Hg10 mi
8:56 AM44 °FSunny.No wind85%30.05 "Hg10 mi
7:56 AM41 °FFog.No wind89%30.05 "Hg4 mi
6:56 AM39 °FClear.No wind89%30.04 "Hg10 mi
5:56 AM39 °FClear.No wind89%30.05 "Hg10 mi
4:56 AM40 °FClear.No wind89%30.05 "Hg10 mi
3:56 AM42 °FClear.No wind85%30.05 "Hg10 mi
2:56 AM43 °FClear.No wind89%30.06 "Hg10 mi
Weather by CustomWeather, © 2014

See weather overviewHow to use our weather pages